Wind_Speed
14 16 17 14 10 6 7 8 7 5 12 7 6 11 13 12 15 15 13 16 20 22 23 24 25 24 22 23 27 29 29 29 26 25 26 26 24 22 19 16 16 15 13 12 13 13 14 13 12 10 7 4 4 5 5 6 6 5 7 9 8 7 7 7 7 7 8 8 8 9 9 8 8 10 11 12 10 7 7 8 8 8 6 5 5 4
13 14 14 9 5 5 7 5 5 3 8 1 7 11 12 9 11 15 15 17 19 21 24 26 25 21 19 21 26 28 24 24 26 27 28 27 25 23 21 16 15 15 13 12 12 14 15 14 16 14 7 4 3 2 2 2 4 6 8 9 9 9 10 10 9 10 10 9 9 9 9 9 8 10 11 10 9 8 8 8 10 10 9 7 7 6
14 14 11 7 6 7 5 3 5 2 8 2 7 11 11 8 9 14 17 19 21 24 27 28 24 17 16 21 26 25 21 22 27 28 27 26 24 22 21 17 15 15 13 12 12 14 15 14 15 15 9 7 5 3 1 1 2 5 7 9 10 12 12 12 11 11 11 11 11 10 9 9 8 9 10 11 10 10 10 10 10 11 9 8 8 7
15 12 9 5 7 11 6 1 2 6 8 2 8 10 12 10 10 13 17 21 24 27 29 27 22 16 15 22 26 22 19 22 26 26 26 25 23 21 21 19 16 14 14 15 15 15 16 14 11 11 9 8 6 5 5 5 5 6 7 8 10 10 10 10 10 10 10 11 11 10 10 9 8 7 8 9 10 11 11 11 11 10 7 7 9 7
12 7 6 4 5 10 8 5 9 11 7 1 5 7 12 15 16 17 20 23 26 26 25 24 22 20 19 21 24 22 19 21 25 24 24 26 25 22 22 22 19 17 18 19 19 19 19 17 15 12 11 8 6 6 7 9 9 8 7 8 8 6 5 5 5 7 8 10 11 11 10 8 7 6 6 8 10 11 11 11 12 11 8 8 10 9
10 7 6 5 6 8 9 12 16 12 6 4 2 5 10 17 21 22 23 25 24 20 18 21 23 23 22 20 21 22 18 20 25 26 27 30 29 26 25 25 24 22 22 22 23 22 21 22 20 17 15 10 5 6 8 9 9 8 7 8 7 5 4 4 4 5 7 8 9 10 9 8 8 7 7 8 9 11 11 10 12 12 10 10 12 12
12 11 8 6 5 9 14 17 16 10 6 7 6 5 4 11 14 16 19 20 18 15 15 19 21 21 21 19 21 23 21 22 27 29 31 31 29 28 26 25 24 24 23 23 24 23 23 24 22 18 15 8 2 7 8 9 10 10 8 8 8 5 4 4 5 6 6 7 8 9 9 9 9 9 10 10 9 10 11 12 13 13 10 10 12 13
11 11 9 5 5 12 18 16 10 8 9 9 5 5 8 8 7 9 12 13 13 14 15 18 19 20 18 18 22 24 24 24 28 30 29 26 25 25 23 23 23 23 25 26 24 22 22 23 23 18 11 5 2 7 9 11 13 13 11 10 10 9 7 7 7 7 7 7 9 10 10 10 11 11 11 12 11 10 11 11 13 13 11 11 12 11
11 12 11 8 9 15 17 14 10 8 10 13 8 9 10 4 2 3 6 8 10 13 15 17 18 19 16 18 21 20 22 25 29 30 25 21 23 24 23 24 26 27 30 30 25 21 21 22 22 17 9 4 3 6 9 12 12 13 10 9 11 10 9 9 9 9 9 9 10 11 11 12 12 12 12 12 12 11 10 10 10 10 10 11 11 10
11 12 12 11 12 14 13 13 12 9 9 11 9 4 4 3 5 6 7 8 9 13 16 16 16 16 15 18 20 19 23 28 29 27 23 22 24 25 24 25 28 30 31 29 22 21 21 21 22 19 11 6 6 10 13 10 9 7 6 5 8 9 9 10 11 12 12 12 12 12 13 13 13 14 14 13 13 11 10 9 9 9 10 10 11 11
11 14 14 9 7 10 11 11 11 7 6 4 4 5 5 3 3 5 6 4 7 12 13 13 13 13 15 17 20 21 24 28 27 23 23 25 25 25 25 25 27 29 29 26 19 18 22 21 21 20 13 8 9 15 17 12 9 8 7 7 9 10 11 13 15 16 16 16 16 15 15 15 15 16 16 16 15 14 13 11 11 10 11 11 12 12
12 13 10 5 4 4 7 8 7 3 2 6 6 9 9 4 4 4 1 4 6 8 9 11 13 13 16 19 21 24 25 26 24 24 26 26 25 26 26 26 27 27 25 24 19 17 19 17 15 15 11 9 13 18 18 15 13 14 13 12 11 12 13 14 16 17 18 18 19 19 18 18 18 18 18 19 18 17 16 14 13 13 12 12 12 13
11 10 6 1 4 2 1 4 5 4 5 7 10 12 11 9 0 6 6 5 6 8 9 12 13 14 20 23 24 25 25 24 24 26 28 26 27 28 27 26 26 24 22 22 20 16 16 16 14 12 12 11 15 19 18 15 13 15 15 13 12 12 12 13 15 16 17 18 18 19 19 19 19 19 19 20 20 19 18 17 15 14 14 13 13 14
5 5 5 4 7 6 5 6 7 10 10 9 10 11 7 7 5 5 7 8 9 11 13 14 14 17 22 23 23 24 24 24 25 28 29 27 28 28 27 26 25 22 20 20 20 17 18 20 17 15 12 10 13 20 20 15 13 14 14 13 12 12 12 13 14 15 16 17 17 17 17 18 19 19 19 19 20 20 20 19 18 17 16 16 16 16
5 7 8 6 7 8 9 9 8 5 2 3 7 8 4 2 5 6 8 10 13 16 18 18 19 21 23 23 24 25 24 25 26 28 29 28 27 26 26 26 22 19 18 19 20 18 19 21 17 12 9 9 15 22 21 16 14 13 13 13 12 13 14 15 15 16 16 17 17 16 16 16 17 18 19 20 20 21 21 21 21 21 20 19 19 19
9 11 9 6 5 5 7 9 9 5 3 3 6 5 6 6 6 9 12 14 17 19 21 22 23 24 24 24 25 25 24 25 27 27 27 27 26 26 24 23 21 18 17 18 19 19 18 17 14 9 9 13 19 22 20 17 16 16 15 14 13 14 15 16 17 17 17 17 17 16 16 16 17 18 19 20 20 21 22 22 23 24 24 23 23 22
7 8 6 3 3 3 4 5 7 5 3 5 5 6 10 10 11 15 18 20 22 24 25 25 25 25 24 24 25 25 25 26 27 26 27 26 26 25 23 22 21 20 19 19 19 19 18 15 12 11 13 16 20 20 19 19 18 19 18 16 15 16 16 16 17 17 17 17 17 17 17 17 18 18 20 21 22 22 23 23 24 25 26 26 26 26
5 6 3 2 5 4 1 1 6 8 5 2 5 10 13 13 15 17 18 21 23 23 22 22 23 24 25 25 26 27 27 27 27 27 26 26 25 24 23 23 22 21 20 20 19 18 18 16 14 13 14 16 17 17 18 18 19 20 19 19 18 19 19 17 16 16 17 18 19 19 19 19 20 21 22 23 24 25 26 26 27 27 28 29 29 28
12 9 2 1 7 8 5 0 5 7 4 2 3 9 12 13 15 15 16 17 18 19 19 20 23 25 27 27 28 27 27 28 30 29 28 27 27 27 26 25 23 22 21 20 19 17 17 16 15 15 15 15 15 16 17 17 18 19 19 20 19 20 21 20 17 18 19 20 21 22 22 22 23 24 26 27 27 28 29 30 30 31 32 32 32 32
16 11 4 5 4 5 4 2 4 9 10 5 3 4 7 10 15 18 17 17 18 20 20 21 25 26 26 26 26 27 29 32 33 31 29 29 29 29 27 26 24 22 22 20 18 17 15 15 15 16 15 16 16 17 18 18 17 18 18 19 19 19 20 21 21 23 24 24 24 25 25 26 27 28 30 31 31 31 31 31 32 33 34 35 35 35
19 15 8 6 4 1 2 7 11 12 12 8 6 8 8 9 14 17 17 18 21 22 23 24 25 26 24 24 26 29 33 34 32 30 30 30 29 28 27 26 25 23 21 19 17 16 15 14 15 16 16 16 17 18 19 18 18 18 19 19 19 20 21 22 24 26 27 27 28 29 30 30 31 32 33 34 34 34 34 34 34 34 34 35 36 36
19 17 12 9 6 3 6 11 13 15 15 12 11 13 13 12 15 18 18 20 22 22 24 25 25 26 25 26 29 32 33 33 31 30 29 29 27 26 26 26 25 22 20 19 19 18 17 16 15 15 15 16 18 19 20 20 20 21 22 22 22 23 24 25 27 28 29 30 31 32 33 34 34 35 35 36 36 36 36 36 36 35 35 35 36 36
19 18 14 13 12 9 10 12 12 17 18 17 17 16 17 17 19 21 22 23 24 24 24 24 24 25 26 27 30 30 31 31 29 27 26 26 25 24 24 23 21 19 19 20 20 18 17 16 15 14 16 17 19 20 21 22 23 24 25 25 26 26 27 28 29 30 31 32 33 34 35 36 37 38 38 38 38 38 38 38 39 38 38 38 38 38
21 21 16 14 15 14 15 16 16 20 21 19 19 19 21 24 26 27 27 27 27 25 23 22 22 23 25 27 29 29 29 28 26 25 24 24 23 22 23 21 19 18 19 20 19 16 16 17 17 17 19 20 20 22 23 24 25 26 26 26 27 27 28 29 30 32 33 34 36 37 38 39 39 40 41 41 41 41 42 42 42 42 41 41 41 41
20 20 18 16 15 14 15 16 19 22 21 19 21 23 24 25 27 29 29 28 25 24 24 22 21 23 26 28 28 28 27 26 26 26 25 24 22 21 21 19 16 17 18 19 19 18 19 20 19 20 22 23 23 24 25 26 27 28 29 29 29 30 31 31 32 33 34 35 37 38 40 41 41 42 43 44 44 44 44 44 44 44 44 44 44 43
21 19 19 20 18 16 15 14 17 21 20 20 25 27 25 23 24 25 26 25 23 23 24 23 23 25 27 28 28 27 27 27 27 27 26 23 21 20 18 15 15 17 18 19 20 20 22 23 22 23 24 25 26 27 27 28 29 30 31 31 32 33 34 35 36 36 37 38 38 39 40 41 42 43 44 45 46 46 47 47 47 47 47 46 46 46
26 23 20 21 23 21 18 16 17 19 22 25 29 29 27 27 27 27 26 26 24 24 24 24 25 27 28 29 28 27 26 26 26 26 25 22 20 18 16 15 17 19 19 20 20 21 22 23 23 24 25 26 27 27 28 29 30 31 32 32 33 34 35 37 38 39 40 41 42 43 44 44 45 46 46 47 48 48 49 49 50 50 50 49 49 48
27 29 24 23 23 22 18 16 16 20 24 25 26 27 29 31 32 30 28 26 24 24 25 26 27 27 29 29 28 26 25 25 25 25 23 19 18 17 16 16 18 19 20 21 21 21 22 22 22 23 24 25 26 27 28 29 30 31 32 33 34 36 37 38 40 41 42 43 44 45 45 46 47 48 48 49 50 50 51 51 51 52 52 52 52 51
22 28 28 26 24 23 20 17 16 20 23 22 22 25 28 31 32 28 26 23 22 23 25 27 28 29 30 29 27 24 23 24 25 23 20 18 18 18 18 19 19 20 21 21 21 21 21 21 22 23 24 25 26 28 29 30 31 32 34 35 37 38 39 39 40 41 42 42 43 43 44 44 45 46 47 48 49 50 51 51 52 52 52 53 53 53
19 23 27 28 25 24 22 20 20 23 24 24 25 27 28 28 27 26 25 24 23 24 27 28 29 30 30 29 26 25 25 25 24 21 20 20 20 20 21 22 22 22 21 21 21 21 22 23 24 25 26 27 28 30 31 33 34 35 36 37 38 38 39 39 39 39 39 39 39 39 39 39 40 40 41 42 43 44 45 46 47 48 48 49 50 50
19 22 25 25 24 23 22 21 22 25 27 28 29 29 28 27 26 26 26 25 25 27 29 30 31 31 30 28 27 27 26 24 21 20 21 21 21 22 24 24 24 22 22 22 23 24 25 26 26 27 28 29 31 33 35 36 37 37 37 38 37 37 37 36 35 35 34 33 33 32 32 33 33 34 34 35 35 36 37 38 39 40 41 43 44 44
17 23 27 25 23 22 23 23 24 26 27 29 30 29 29 28 27 27 27 27 28 29 30 31 31 30 29 28 28 27 25 23 22 22 23 23 23 25 25 25 24 23 24 25 26 27 27 28 28 29 31 33 34 36 37 38 38 38 37 36 35 34 33 31 31 31 30 30 30 30 31 31 32 32 32 32 33 33 34 34 35 35 36 38 39 40
16 23 28 28 26 24 25 25 27 28 29 30 31 32 32 31 29 28 29 29 29 30 31 31 29 28 28 28 28 26 24 24 24 25 25 26 26 27 26 25 25 25 26 27 28 29 29 30 31 32 34 35 37 38 38 38 37 36 34 32 31 30 30 30 30 30 30 30 30 30 30 30 31 31 31 32 32 32 32 32 33 34 34 36 37 37
17 22 27 30 29 27 28 29 30 32 33 33 34 34 33 31 29 29 29 29 29 30 30 29 28 28 29 28 27 26 26 26 27 28 28 29 28 28 27 27 27 27 28 29 29 30 31 32 33 35 36 37 37 37 37 36 34 32 30 29 29 29 30 30 30 30 29 29 29 30 30 30 31 31 31 31 31 31 32 32 33 34 34 35 35 34
15 22 26 29 28 27 30 31 31 32 33 33 32 31 29 29 28 29 29 29 29 28 28 27 28 28 28 27 26 26 27 29 30 31 31 30 28 28 28 28 28 28 28 28 29 31 32 33 34 36 36 37 37 36 35 33 31 29 28 28 29 31 31 30 28 28 27 28 29 30 31 31 31 31 31 31 32 32 33 33 34 34 33 33 32 30
11 16 21 24 26 26 27 27 27 28 29 28 28 28 28 28 27 27 28 28 27 27 27 27 27 27 27 26 26 27 29 30 31 32 31 30 29 29 28 27 27 27 27 28 30 31 32 33 35 36 36 35 35 33 31 30 29 28 27 28 30 30 29 28 27 27 28 29 30 31 31 32 32 32 32 32 33 33 33 33 33 33 32 31 30 28
14 16 19 23 26 25 24 25 26 26 26 27 27 28 28 27 26 25 26 26 25 25 26 27 27 27 27 27 29 30 31 32 33 33 33 32 32 31 29 29 29 29 30 31 32 33 33 34 35 35 35 34 32 30 28 28 27 27 27 28 28 28 28 27 27 28 29 29 30 31 32 32 33 33 33 33 33 33 33 32 32 31 31 30 28 27
19 17 19 23 26 27 25 26 27 27 28 29 29 27 26 24 23 22 23 23 24 25 27 27 27 27 28 29 31 33 33 34 35 35 35 34 33 31 31 32 32 33 34 35 35 36 35 36 36 36 34 31 29 28 27 27 27 27 27 27 28 28 28 28 28 29 29 30 31 31 32 32 32 32 32 32 32 32 31 31 30 30 29 28 27 27
21 19 18 19 23 25 25 25 27 29 29 28 26 24 23 22 22 22 23 24 26 26 27 27 27 28 29 31 33 34 34 35 35 35 35 34 32 32 33 34 35 35 36 37 37 37 37 38 37 36 33 30 28 27 27 27 28 27 27 27 28 28 29 29 29 30 30 30 31 31 30 30 29 29 28 29 29 29 28 28 28 27 27 26 26 26
20 21 20 20 21 23 23 24 25 26 25 23 22 22 22 22 22 23 25 26 27 27 27 28 28 30 31 32 33 34 35 35 36 35 34 32 32 34 35 36 37 37 37 38 38 38 38 38 37 34 31 29 28 28 28 28 28 27 27 27 28 28 29 29 29 29 30 30 29 28 27 27 26 26 26 26 27 27 26 26 25 25 24 24 24 24
23 24 24 23 21 21 21 20 19 19 18 18 20 22 23 23 24 26 27 28 28 28 28 29 30 31 32 33 34 34 35 35 34 33 31 31 32 34 35 37 38 38 38 39 39 39 38 37 34 31 29 29 29 29 29 29 28 28 27 27 27 28 28 28 28 29 28 27 26 25 25 25 24 24 24 25 25 25 25 24 24 23 23 22 22 23
24 24 24 23 23 22 22 19 18 18 18 18 21 23 24 26 27 28 29 30 29 28 29 30 31 32 33 33 34 34 34 33 31 30 31 31 33 34 35 37 38 38 39 39 39 39 38 36 32 29 28 29 30 30 30 30 29 28 26 26 28 28 28 28 27 27 26 25 24 24 24 24 23 23 23 23 23 23 23 22 22 22 22 22 23 23
21 22 22 22 23 23 23 21 20 20 19 20 22 23 25 27 28 29 29 29 28 29 30 30 31 31 33 34 34 33 32 31 30 31 32 33 34 35 36 37 37 38 38 38 37 37 36 33 30 28 29 29 30 30 30 30 29 28 26 26 27 28 28 27 26 24 24 24 23 23 23 23 23 22 22 22 22 22 21 21 21 21 21 22 22 23
19 19 20 21 22 22 23 23 22 21 21 23 24 25 26 26 26 27 27 27 28 29 30 30 31 32 34 34 32 30 29 30 31 32 33 34 35 36 37 37 37 37 38 37 36 35 34 31 29 28 29 29 29 28 29 29 28 27 26 27 27 27 27 26 24 22 22 23 23 23 22 22 22 22 21 21 21 20 20 20 20 20 20 20 21 21
17 17 17 19 20 21 21 21 21 21 23 24 25 24 24 24 24 25 26 27 28 29 30 31 31 33 33 32 30 29 30 32 33 34 34 35 36 37 38 38 38 38 38 37 36 35 32 30 29 29 29 29 28 27 28 28 28 27 26 27 27 26 26 24 23 21 21 22 22 22 21 21 21 21 21 20 20 19 19 19 19 20 20 21 21 21
17 17 18 19 20 20 19 19 19 19 20 20 21 21 22 22 23 25 26 27 28 29 30 31 31 31 30 29 28 30 31 33 34 35 35 36 37 38 38 38 38 38 37 35 34 33 31 29 28 29 29 29 28 28 29 29 28 27 27 26 26 26 25 23 22 21 21 21 22 22 21 21 21 20 20 20 19 19 19 19 20 21 21 22 22 22
16 17 18 18 18 16 15 14 15 15 16 17 19 20 21 23 24 25 26 28 29 29 30 30 30 29 28 28 29 30 31 33 34 35 36 37 38 38 38 37 37 36 34 32 31 31 30 28 28 28 29 29 29 29 29 28 27 27 26 25 25 25 24 22 21 21 21 21 21 21 21 20 20 20 20 20 20 20 20 20 21 22 22 23 23 22
15 16 16 15 13 12 11 12 13 15 16 18 19 21 22 24 25 27 28 29 29 29 29 28 28 28 28 29 29 30 31 33 34 35 36 36 37 37 37 37 36 34 32 31 30 30 30 28 28 29 29 29 28 28 27 26 26 25 25 24 25 24 23 22 22 22 21 21 21 21 20 20 20 20 20 20 20 20 21 22 22 23 23 23 23 23
14 14 13 12 11 11 12 13 14 15 17 18 20 22 23 25 26 28 29 30 29 28 27 27 27 28 29 29 30 30 32 33 34 35 35 35 35 36 36 36 34 32 31 30 29 29 29 28 28 29 28 27 26 25 25 24 25 25 24 24 24 24 23 22 22 22 22 21 21 21 20 20 20 20 21 21 21 21 22 22 22 22 22 22 22 22
14 13 11 11 11 12 12 13 14 16 17 18 20 22 23 24 25 27 27 27 26 25 24 25 27 28 29 30 30 31 32 33 34 34 35 34 34 35 35 34 32 30 29 29 28 27 27 26 27 27 27 26 25 24 24 24 25 25 24 23 23 23 23 22 22 22 22 22 21 21 21 20 21 21 21 22 22 22 22 22 21 21 21 21 21 22
13 12 11 10 11 12 12 13 15 16 18 19 20 21 22 23 24 25 24 22 21 22 23 25 27 28 30 30 31 33 33 34 34 34 34 34 34 34 34 32 30 29 29 28 27 26 26 26 26 27 27 26 25 25 25 25 25 24 24 23 23 23 22 22 22 22 22 22 22 21 21 21 21 22 22 22 22 22 21 20 20 20 20 21 23 24
Wind_Direction
162 162 162 167 166 124 60 18 352 99 107 73 340 327 346 6 5 13 16 360 359 358 354 359 2 2 6 13 9 4 1 359 360 3 5 7 7 4 3 359 353 354 359 356 346 339 335 333 342 4 19 9 26 28 6 9 14 16 36 54 61 55 47 37 29 27 23 14 6 9 21 26 13 8 14 19 20 14 17 26 20 10 5 6 6 359
182 181 176 171 158 94 59 18 343 135 146 196 303 318 344 19 20 11 3 354 354 350 349 356 360 4 9 5 1 2 1 356 357 358 359 1 3 3 0 355 347 342 345 350 340 327 324 331 345 356 356 334 346 1 346 16 12 10 29 44 49 48 45 37 27 17 8 4 3 6 18 23 9 6 10 10 12 10 12 22 21 14 13 19 18 13
194 196 189 160 126 100 69 349 332 147 167 238 311 325 349 22 20 359 344 338 339 338 340 348 355 4 4 353 353 1 5 358 356 356 356 355 355 357 355 348 340 333 330 331 324 319 323 333 350 354 342 324 324 312 321 80 65 32 38 44 44 43 37 30 21 9 358 351 354 1 11 16 10 3 6 7 6 7 10 14 14 13 16 22 21 16
209 212 212 191 150 133 119 347 8 136 165 304 344 346 350 351 348 343 329 324 328 330 333 341 349 353 346 345 350 359 3 356 354 357 357 352 347 346 345 341 335 328 324 321 317 319 322 326 336 337 328 324 320 314 339 29 48 40 44 48 48 45 36 27 15 2 351 342 344 353 360 7 9 0 357 1 0 0 7 12 8 9 19 22 21 15
229 242 248 246 172 143 129 126 131 141 175 290 14 352 345 347 341 333 324 322 326 328 336 344 344 339 337 343 347 351 352 347 348 351 351 348 345 343 341 339 335 328 325 323 321 320 320 320 316 310 310 312 308 328 0 28 36 33 38 41 40 42 35 21 6 348 336 334 335 340 346 352 353 345 338 341 344 349 358 4 0 359 7 11 15 15
230 231 226 218 184 148 122 129 139 146 185 197 193 281 315 333 327 318 313 313 321 330 341 347 342 334 335 338 334 334 339 339 338 339 340 342 344 346 345 342 338 332 328 324 322 320 322 323 315 306 308 303 300 346 3 21 31 32 37 37 30 25 18 358 340 328 319 319 320 322 328 332 329 323 321 322 331 339 340 346 348 347 350 353 358 359
229 228 228 228 198 147 128 131 143 158 202 221 223 234 313 340 329 319 316 315 326 338 337 341 346 341 337 332 322 321 326 330 332 334 338 343 346 347 344 338 333 330 326 321 318 316 319 323 322 316 309 300 346 16 12 19 21 22 30 39 39 31 21 1 335 324 322 316 314 315 318 320 317 314 313 313 322 330 330 337 339 336 339 342 348 349
244 244 241 236 173 145 139 140 160 197 214 226 221 114 77 48 34 6 345 335 336 333 321 326 341 343 335 326 318 317 320 324 327 331 339 347 347 343 338 335 330 325 320 313 307 308 310 315 323 326 310 284 16 34 42 42 22 10 13 27 36 32 18 3 341 332 337 334 328 326 324 321 315 309 305 305 310 314 317 326 330 329 328 328 335 337
237 232 229 220 182 160 153 156 183 221 219 219 209 112 96 87 60 1 317 302 303 305 301 305 324 337 335 326 324 321 320 321 324 331 340 344 342 340 336 334 332 328 326 317 300 294 301 308 319 327 314 282 334 6 26 44 33 9 358 9 24 21 6 353 343 341 344 343 338 334 330 325 318 310 304 301 301 301 302 303 307 309 309 306 310 311
244 234 231 227 202 187 179 172 185 227 238 226 231 177 136 238 261 266 273 279 274 270 277 292 314 333 336 331 328 324 319 320 326 336 343 339 338 342 337 334 335 334 337 333 310 290 298 309 317 319 303 286 325 340 345 17 36 3 338 5 23 15 358 348 343 345 346 344 341 336 330 325 320 316 310 307 303 300 298 293 291 293 294 295 299 304
248 245 247 248 225 207 208 194 188 229 247 207 238 231 206 220 240 251 260 262 256 251 261 286 302 316 323 323 323 324 323 325 330 338 341 338 339 342 339 339 341 341 345 348 331 304 306 314 317 315 296 284 335 340 335 352 2 333 330 2 14 8 356 347 343 342 341 341 340 337 333 327 322 319 315 314 313 312 311 309 310 311 309 310 311 313
231 238 248 280 308 230 220 221 205 208 177 152 165 193 204 208 108 73 311 238 251 255 262 288 296 303 311 311 313 321 326 329 333 337 338 340 340 340 340 340 342 344 348 350 341 320 316 316 316 318 302 300 340 339 331 344 343 327 333 349 356 357 352 345 340 336 333 333 334 333 332 329 325 322 319 318 318 319 319 319 319 320 319 318 318 317
232 234 226 267 7 34 290 278 260 262 244 205 194 198 225 256 98 48 347 289 278 274 272 289 299 304 308 308 308 315 322 326 331 336 338 339 337 337 338 336 339 345 348 346 342 331 322 312 299 300 300 307 332 329 321 331 332 323 330 339 344 346 342 340 335 329 325 324 325 326 325 325 323 321 318 316 316 316 317 317 317 317 316 316 315 313
236 215 175 112 46 32 23 356 310 280 268 250 229 223 249 297 318 338 315 299 296 294 294 298 300 302 306 309 314 318 320 320 326 332 333 334 334 334 334 334 339 344 345 343 341 338 333 324 302 281 277 287 317 321 313 313 315 315 321 325 329 330 327 328 326 321 319 316 316 318 318 317 316 315 313 310 309 309 310 310 310 310 309 309 308 306
169 166 157 116 56 35 39 20 345 312 267 219 213 217 221 286 316 315 299 294 296 296 298 297 293 294 299 305 314 318 316 318 327 329 328 328 329 328 329 332 338 343 343 342 339 337 339 338 324 290 264 271 304 314 310 302 302 307 315 318 318 318 316 318 319 319 317 314 313 313 312 312 310 309 307 305 303 301 301 302 302 302 302 301 301 300
165 171 169 134 90 72 55 16 357 48 92 190 181 199 226 230 276 302 297 294 293 292 293 292 288 288 291 298 306 311 314 322 327 327 325 323 322 322 325 329 335 339 339 339 338 336 338 343 338 313 285 287 299 307 307 303 298 300 308 312 311 312 312 312 315 317 315 314 313 310 308 307 305 304 303 301 299 296 294 293 293 294 294 294 295 295
183 172 165 141 117 103 65 5 353 22 330 263 224 240 255 253 268 282 289 292 290 290 291 290 286 284 287 294 302 308 315 321 323 322 322 321 320 323 326 328 331 333 333 334 333 332 333 336 333 318 303 298 300 304 308 306 298 297 302 302 301 304 307 309 309 309 309 309 309 307 304 302 302 302 302 300 299 297 294 291 289 288 288 289 289 290
161 122 91 211 175 159 168 334 357 357 338 261 246 257 262 269 275 275 277 281 282 283 285 285 287 288 288 292 299 307 313 316 318 320 320 320 322 325 327 329 328 327 327 327 327 326 325 325 321 314 305 301 303 308 311 307 301 302 305 305 301 298 298 299 300 300 301 300 300 300 298 296 297 298 298 297 296 295 294 292 291 289 288 287 287 287
137 126 84 172 163 178 208 271 357 325 288 213 236 260 266 270 270 265 262 268 276 279 281 288 295 296 292 292 299 306 312 316 319 319 319 320 322 323 325 326 324 322 321 321 322 321 318 315 310 305 302 303 308 312 312 309 306 307 311 313 310 301 293 292 295 300 301 298 295 293 291 291 291 292 292 291 291 290 290 290 290 290 289 288 287 286
148 146 112 71 115 180 210 242 264 260 253 228 178 226 261 255 249 254 259 268 279 284 286 294 301 302 298 297 302 309 314 319 320 319 318 319 320 322 324 323 320 319 319 318 317 314 311 307 302 299 301 305 309 312 310 308 308 310 312 313 312 306 297 295 297 300 301 299 296 293 291 291 291 291 291 290 289 288 287 287 286 286 286 286 286 286
163 157 142 114 109 138 238 249 254 255 250 235 209 221 235 232 241 257 268 274 279 283 287 295 299 299 300 303 309 314 316 319 320 318 318 319 320 322 323 322 319 316 317 316 312 312 311 306 301 302 304 308 310 311 310 309 310 312 311 307 305 303 300 298 297 297 298 298 297 295 295 294 292 292 291 290 290 290 289 288 286 285 284 283 283 284
176 173 171 169 166 187 228 240 260 266 259 265 270 257 249 244 248 258 267 272 275 278 283 290 294 294 300 310 314 315 315 316 316 315 316 318 320 322 323 322 319 315 316 315 314 317 316 311 308 306 306 309 310 310 310 310 312 312 308 306 304 302 300 299 298 298 298 298 297 297 297 296 294 293 292 292 292 291 291 290 288 287 285 283 282 281
190 185 176 173 174 187 208 219 251 265 266 281 286 264 254 257 255 254 260 271 278 281 284 290 296 300 308 314 314 313 313 315 315 313 314 316 318 319 321 322 319 317 318 318 319 322 320 316 312 307 307 310 310 309 308 309 310 308 306 305 303 302 301 300 299 299 299 298 298 298 297 296 296 295 295 294 293 293 291 290 289 288 287 286 284 282
198 192 182 176 176 192 213 218 235 254 261 270 270 258 256 261 260 257 261 271 280 285 291 299 306 310 311 311 312 314 315 317 317 315 314 315 317 319 320 320 319 320 323 322 320 321 320 316 312 309 311 314 312 310 308 306 305 305 305 305 304 302 301 299 298 298 298 299 299 298 297 297 296 295 295 294 294 293 292 291 290 289 287 286 285 283
205 200 195 191 186 202 224 223 228 242 249 254 258 262 264 261 261 264 267 272 280 289 298 306 310 309 307 309 315 318 319 318 317 316 316 316 317 320 320 319 322 327 328 324 320 320 319 317 313 311 314 314 313 311 308 307 307 307 308 308 307 305 303 301 300 298 297 297 296 296 295 295 295 295 294 294 293 292 291 290 289 288 287 286 285 284
207 206 201 201 203 211 220 220 224 234 244 253 258 263 267 266 269 276 278 277 284 293 297 300 303 305 307 312 316 318 318 317 317 319 320 320 322 324 323 323 328 331 328 322 319 317 317 317 315 313 313 312 311 310 309 308 308 308 308 308 307 307 305 304 303 302 300 299 297 295 294 293 293 292 291 291 290 289 289 288 287 287 286 285 284 284
205 206 203 205 212 219 228 239 249 253 257 261 262 265 269 270 275 284 288 288 290 295 295 296 299 304 310 314 315 315 314 314 317 321 323 324 328 331 328 324 326 327 323 320 317 313 311 312 311 309 307 307 308 309 308 308 307 306 307 307 306 305 304 304 303 302 301 299 298 297 295 294 292 291 289 288 287 286 286 285 285 285 284 284 283 282
209 210 210 210 212 219 234 251 262 263 262 263 267 271 274 276 280 285 291 292 291 293 296 298 301 307 313 316 316 314 312 314 318 321 322 326 330 332 328 323 322 321 319 316 314 309 306 306 304 303 303 304 305 306 305 305 304 305 305 304 303 303 302 301 300 298 297 296 294 293 292 291 290 289 288 287 286 285 284 284 283 282 282 282 281 281
216 216 218 219 217 219 230 243 248 252 257 261 266 271 275 279 282 285 290 290 291 295 300 303 307 310 313 316 316 314 313 316 320 321 321 323 326 328 326 323 321 319 316 314 310 306 303 302 302 303 304 304 304 303 303 303 303 303 303 302 302 302 301 299 297 296 295 294 292 291 290 289 288 287 286 285 285 285 285 285 284 284 283 282 281 281
221 220 224 224 222 221 226 236 244 249 254 257 259 262 267 273 278 285 292 294 297 302 304 307 311 311 312 314 315 315 316 318 321 321 319 320 322 324 326 325 322 320 317 314 310 306 306 307 308 308 308 306 305 304 304 305 305 305 305 304 303 302 301 299 298 298 297 296 295 294 293 292 291 290 289 288 287 287 287 287 287 287 286 286 285 284
222 218 223 221 217 218 221 228 238 246 253 258 262 264 268 274 281 287 293 298 302 305 306 309 311 311 312 313 313 315 318 319 320 320 319 320 320 322 325 325 322 320 317 314 311 309 310 312 313 311 309 307 307 308 308 308 309 308 308 307 305 304 303 303 303 302 303 302 302 301 301 300 299 298 297 296 295 294 293 292 292 291 290 290 289 288
219 210 215 216 212 215 220 224 230 239 249 257 262 268 275 282 286 289 295 301 303 305 308 310 311 310 312 313 313 314 316 316 317 318 319 319 319 321 324 324 322 320 316 313 312 313 314 315 315 312 310 310 311 311 311 311 311 311 310 309 308 308 308 309 308 308 308 308 307 307 307 307 306 305 304 303 302 301 300 298 297 296 295 294 293 291
215 209 214 217 219 224 230 234 236 242 250 258 263 270 278 284 287 292 298 301 302 305 308 309 309 310 311 311 311 312 313 313 315 317 318 319 321 324 325 324 322 319 315 314 314 315 317 317 315 313 312 313 313 312 312 312 312 312 312 311 311 312 312 311 310 310 310 310 310 310 311 310 309 308 307 306 306 304 303 301 300 300 299 298 297 293
211 212 217 222 226 233 240 244 247 251 255 261 265 270 277 283 288 295 299 301 303 305 306 307 309 310 310 310 311 312 313 314 314 316 318 321 324 326 325 322 319 316 315 316 316 317 317 316 314 313 313 313 313 313 313 313 313 313 314 314 314 315 314 313 312 312 312 313 313 313 313 312 312 311 310 309 308 306 305 304 303 302 301 302 301 296
219 218 221 225 231 238 245 251 255 258 261 263 267 272 278 284 292 298 301 302 304 305 306 307 307 308 308 310 311 313 314 314 314 316 319 323 325 324 321 318 315 313 314 315 315 315 315 314 313 313 313 313 313 313 313 313 314 315 316 316 318 318 318 317 317 316 316 315 315 315 315 314 314 313 312 311 310 308 308 306 305 304 304 305 305 300
247 241 238 238 241 246 251 256 259 262 265 266 268 274 281 288 294 297 298 300 302 305 306 306 306 306 308 310 311 312 312 312 313 316 320 322 322 320 318 314 311 311 313 314 314 314 315 315 313 313 314 315 314 314 314 314 315 316 317 319 321 322 321 320 319 318 318 317 317 316 316 316 315 315 313 312 311 310 310 308 308 308 308 308 308 304
242 250 253 252 252 254 258 262 265 268 271 272 274 281 288 294 296 295 296 298 302 304 306 307 307 308 310 312 312 312 312 313 315 317 320 321 321 320 317 314 314 316 317 317 317 317 317 316 314 314 316 316 315 315 315 314 315 315 316 318 321 323 323 322 320 319 318 317 317 317 316 316 316 315 315 314 313 312 311 311 310 310 309 310 310 307
246 248 251 252 253 255 258 263 269 272 275 278 284 291 297 299 298 298 300 303 305 306 307 307 307 309 312 313 313 313 314 316 318 320 322 323 322 320 317 317 319 320 320 319 319 319 318 317 316 317 319 317 315 315 314 313 314 314 314 316 319 322 323 322 321 319 318 318 318 318 319 319 318 318 318 317 316 316 315 314 313 312 310 310 309 308
258 261 262 259 257 259 262 264 268 272 276 283 291 295 297 299 301 304 305 305 306 306 306 306 308 311 313 313 313 314 316 318 319 320 322 322 320 318 317 318 318 319 319 319 319 319 319 319 319 320 319 317 314 313 313 312 313 313 313 314 317 319 320 320 319 319 318 319 320 321 322 322 322 323 323 322 321 321 321 320 319 317 315 312 310 308
249 257 264 265 264 268 272 272 272 273 278 287 292 294 296 298 301 302 303 304 305 306 307 309 310 312 313 313 313 315 316 318 319 319 320 320 318 316 317 317 318 319 320 320 319 320 319 319 320 320 317 315 313 313 313 312 312 312 311 312 315 318 318 318 318 319 319 320 322 323 324 324 326 327 326 325 325 326 326 327 326 325 323 321 319 316
245 252 259 264 265 271 278 281 280 281 286 292 294 295 297 298 299 301 303 304 305 306 308 310 311 312 313 313 314 314 315 316 317 317 317 317 316 315 316 316 318 320 320 319 319 319 319 319 319 317 313 312 312 312 312 311 310 310 310 312 315 317 317 318 318 319 319 320 323 325 325 325 327 327 326 327 328 329 330 330 329 330 331 331 331 329
254 258 262 265 265 270 278 283 286 291 297 298 296 295 295 295 297 299 300 301 303 306 308 309 311 312 312 311 311 313 314 315 315 315 315 315 315 315 316 317 318 319 318 318 319 319 318 317 316 314 311 311 311 311 311 310 310 310 311 313 315 316 317 318 319 319 319 321 324 325 324 324 325 326 327 328 328 329 330 330 330 333 335 337 337 336
263 266 269 271 272 274 279 284 288 294 296 293 291 289 290 291 293 295 297 300 304 306 307 308 310 309 308 308 310 313 314 315 315 315 315 315 316 316 317 317 317 317 316 318 319 317 315 314 313 311 310 311 311 311 311 311 311 310 311 313 314 315 316 317 318 318 318 322 325 325 322 322 323 325 327 328 327 327 329 331 332 334 336 337 337 337
266 268 272 276 278 279 282 285 289 291 288 286 286 286 287 289 291 294 298 302 304 305 306 307 308 308 307 309 312 315 316 315 315 316 316 316 317 317 317 317 317 316 317 319 318 315 313 312 311 311 310 310 310 310 310 311 311 311 311 311 312 314 315 315 316 317 319 322 323 322 320 320 321 324 325 325 324 325 327 330 331 332 333 334 334 334
272 275 277 279 280 279 280 282 282 280 279 280 282 284 287 290 293 297 301 303 303 304 305 307 308 308 309 312 316 319 318 316 316 316 317 318 317 317 318 318 318 318 319 319 318 314 312 312 311 310 310 310 310 310 309 310 311 311 310 310 311 313 314 314 315 316 319 320 320 320 318 317 319 321 322 322 322 323 325 328 328 328 328 328 328 329
272 276 277 277 278 279 280 280 279 277 276 277 280 285 289 292 296 299 301 302 303 305 306 307 308 309 312 317 320 319 317 316 316 317 318 318 317 317 319 319 318 318 319 318 315 312 310 309 308 307 308 308 309 309 309 309 309 309 309 310 311 312 313 313 314 316 318 319 319 317 316 315 317 319 320 320 320 321 323 325 324 323 323 323 324 325
276 277 277 278 280 279 277 277 277 278 280 283 287 291 294 297 300 302 303 304 306 307 308 309 310 313 317 319 319 317 315 314 315 316 317 316 316 318 318 317 317 318 318 315 312 309 307 306 306 306 308 309 309 309 310 310 309 309 310 311 312 313 313 313 314 315 316 317 316 315 314 315 316 317 318 317 317 319 321 322 321 321 321 321 322 323
279 276 276 278 279 276 274 276 280 285 290 293 296 299 301 304 305 306 306 307 308 309 310 312 314 317 318 319 317 315 313 313 316 317 316 316 317 317 316 317 318 318 316 313 310 308 307 307 309 311 312 312 312 313 313 313 312 311 313 313 313 314 314 314 314 315 315 315 314 313 312 313 315 316 316 315 316 318 320 320 320 320 320 321 322 324
272 267 266 270 272 271 275 281 286 292 295 298 301 304 306 308 308 307 307 307 309 312 315 316 316 316 316 315 314 313 313 315 317 317 316 316 317 316 315 317 318 317 315 313 311 308 308 309 312 314 314 315 315 317 317 317 315 315 315 315 315 316 315 315 315 314 314 313 313 311 310 311 312 313 313 313 315 317 318 319 319 320 321 323 324 324
273 269 267 266 267 270 276 283 289 294 298 301 304 305 306 306 305 303 304 306 309 313 313 313 313 312 313 313 314 314 315 317 317 316 316 317 316 315 315 317 318 317 315 313 311 308 307 309 313 316 318 319 319 320 320 318 317 316 316 316 317 317 316 315 315 315 314 313 311 310 309 308 308 308 308 310 313 314 316 318 319 320 322 323 323 323
281 280 278 274 275 278 284 291 295 298 302 303 303 303 302 301 299 300 302 306 309 310 310 311 311 312 313 315 316 316 318 318 317 317 317 317 316 316 316 318 319 318 316 314 312 308 307 308 312 317 321 323 323 322 321 320 318 316 315 316 318 318 316 315 315 315 314 312 310 309 308 306 305 305 306 309 311 313 315 318 319 321 322 322 323 324
Height
5951 5951 5951 5952 5952 5952 5953 5954 5956 5957 5957 5959 5958 5956 5955 5954 5954 5952 5952 5952 5951 5951 5951 5950 5949 5947 5945 5943 5941 5939 5938 5937 5937 5937 5937 5936 5935 5933 5931 5929 5928 5928 5927 5926 5923 5920 5918 5917 5919 5920 5917 5912 5910 5909 5907 5907 5906 5905 5904 5904 5903 5902 5900 5899 5897 5896 5894 5893 5892 5891 5891 5891 5889 5887 5886 5885 5884 5883 5882 5880 5879 5879 5878 5877 5877 5876
5951 5950 5950 5951 5951 5951 5952 5954 5956 5957 5957 5958 5957 5954 5953 5953 5953 5952 5951 5950 5950 5950 5950 5949 5949 5947 5945 5943 5941 5940 5938 5937 5936 5935 5935 5934 5933 5932 5931 5929 5927 5927 5926 5924 5922 5919 5917 5917 5920 5922 5919 5914 5912 5909 5907 5907 5906 5904 5903 5903 5902 5902 5900 5899 5898 5896 5895 5893 5892 5892 5891 5891 5889 5887 5886 5885 5884 5883 5881 5880 5880 5879 5878 5877 5877 5877
5950 5950 5950 5949 5949 5949 5951 5953 5955 5956 5957 5957 5956 5953 5952 5952 5953 5951 5950 5949 5949 5949 5948 5949 5948 5947 5945 5943 5942 5941 5938 5937 5935 5934 5933 5932 5931 5931 5930 5929 5927 5925 5924 5923 5921 5919 5918 5918 5920 5922 5920 5916 5913 5911 5909 5908 5907 5905 5904 5903 5902 5901 5900 5899 5898 5896 5895 5893 5893 5892 5891 5891 5889 5887 5886 5885 5884 5883 5882 5881 5880 5879 5878 5877 5876 5876
5949 5949 5949 5948 5947 5947 5949 5952 5954 5956 5956 5955 5954 5953 5952 5952 5952 5951 5949 5948 5948 5948 5947 5948 5947 5947 5945 5944 5943 5941 5939 5937 5935 5934 5932 5931 5930 5930 5929 5929 5927 5926 5925 5923 5920 5920 5919 5918 5918 5919 5918 5915 5912 5911 5911 5910 5908 5906 5904 5903 5902 5901 5900 5899 5898 5896 5895 5893 5892 5891 5891 5890 5889 5887 5886 5885 5884 5884 5883 5882 5880 5879 5877 5877 5875 5875
5949 5949 5948 5948 5948 5947 5948 5950 5953 5955 5955 5953 5953 5953 5952 5951 5951 5951 5949 5948 5947 5948 5948 5947 5947 5947 5946 5945 5943 5941 5939 5937 5935 5934 5932 5931 5929 5929 5929 5929 5929 5928 5927 5924 5921 5920 5919 5918 5917 5917 5916 5914 5912 5911 5910 5910 5909 5907 5905 5903 5902 5901 5900 5899 5898 5897 5895 5894 5892 5891 5890 5889 5888 5887 5886 5885 5884 5883 5883 5882 5880 5877 5877 5877 5876 5875
5948 5949 5948 5948 5947 5947 5948 5949 5952 5954 5954 5952 5952 5953 5953 5952 5951 5950 5950 5948 5948 5948 5948 5947 5947 5946 5946 5945 5943 5940 5939 5937 5935 5934 5933 5932 5930 5930 5929 5928 5928 5928 5927 5925 5922 5920 5918 5917 5916 5915 5915 5914 5911 5909 5909 5909 5910 5908 5906 5904 5901 5900 5900 5899 5898 5896 5895 5894 5892 5891 5889 5888 5887 5886 5885 5885 5884 5883 5882 5880 5877 5876 5876 5876 5875 5874
5947 5947 5947 5947 5946 5946 5948 5950 5952 5953 5952 5952 5952 5953 5954 5954 5952 5950 5949 5948 5947 5947 5947 5946 5947 5946 5945 5944 5941 5939 5938 5936 5934 5933 5933 5933 5931 5930 5928 5927 5925 5924 5924 5923 5921 5919 5917 5916 5914 5914 5914 5914 5910 5907 5906 5906 5908 5908 5907 5905 5902 5900 5899 5898 5897 5896 5894 5893 5892 5890 5889 5887 5886 5885 5884 5884 5883 5883 5881 5878 5875 5874 5874 5874 5872 5871
5947 5947 5947 5946 5946 5947 5948 5949 5951 5951 5951 5951 5951 5952 5952 5954 5953 5951 5949 5947 5946 5945 5945 5946 5947 5946 5945 5943 5941 5939 5938 5936 5933 5933 5933 5933 5931 5929 5927 5925 5923 5921 5921 5919 5917 5916 5914 5914 5913 5912 5912 5912 5910 5907 5905 5904 5905 5905 5905 5903 5900 5899 5899 5898 5896 5895 5893 5892 5891 5889 5887 5886 5885 5884 5884 5883 5883 5883 5882 5879 5876 5873 5872 5871 5871 5872
5946 5946 5946 5945 5945 5945 5946 5947 5948 5949 5949 5949 5950 5950 5951 5953 5953 5952 5951 5949 5947 5946 5944 5945 5946 5946 5944 5943 5941 5940 5938 5935 5934 5934 5933 5932 5930 5928 5926 5924 5921 5920 5918 5916 5914 5913 5911 5911 5910 5910 5910 5909 5909 5909 5907 5906 5905 5905 5905 5903 5899 5898 5898 5897 5896 5894 5892 5891 5889 5888 5886 5884 5883 5883 5883 5882 5882 5882 5882 5879 5877 5875 5873 5873 5873 5873
5944 5944 5943 5943 5944 5944 5943 5944 5945 5946 5947 5947 5948 5950 5951 5952 5951 5950 5950 5949 5948 5946 5944 5945 5945 5944 5943 5942 5941 5939 5937 5934 5933 5933 5933 5931 5930 5928 5925 5923 5921 5919 5916 5912 5911 5911 5910 5909 5909 5907 5906 5906 5906 5907 5907 5907 5907 5908 5908 5905 5900 5899 5898 5897 5895 5893 5891 5890 5888 5886 5885 5884 5882 5881 5881 5881 5881 5881 5881 5880 5878 5876 5874 5873 5873 5871
5942 5942 5942 5943 5943 5944 5943 5943 5943 5944 5945 5946 5948 5949 5950 5950 5949 5948 5947 5946 5945 5944 5944 5945 5945 5943 5943 5941 5940 5938 5936 5934 5933 5933 5932 5930 5929 5927 5924 5922 5921 5918 5914 5911 5911 5911 5910 5908 5907 5905 5903 5903 5903 5904 5905 5904 5905 5906 5905 5901 5898 5897 5896 5894 5892 5890 5889 5887 5885 5884 5883 5882 5881 5879 5878 5878 5878 5878 5878 5877 5876 5874 5873 5871 5870 5869
5940 5940 5942 5943 5943 5944 5943 5943 5943 5944 5945 5945 5946 5948 5949 5948 5947 5946 5946 5944 5943 5944 5944 5945 5944 5943 5942 5940 5938 5936 5935 5933 5932 5932 5931 5929 5928 5926 5923 5921 5920 5918 5914 5911 5910 5910 5908 5907 5906 5904 5903 5903 5902 5902 5902 5900 5900 5900 5898 5895 5893 5892 5892 5891 5890 5888 5887 5885 5883 5882 5880 5879 5878 5877 5876 5875 5874 5874 5874 5874 5873 5872 5871 5870 5868 5867
5938 5939 5941 5942 5942 5942 5943 5943 5944 5944 5945 5944 5945 5946 5947 5946 5945 5945 5944 5944 5943 5944 5944 5943 5942 5942 5940 5939 5937 5935 5934 5933 5932 5931 5930 5928 5926 5924 5922 5920 5919 5917 5914 5911 5909 5908 5906 5906 5905 5904 5903 5903 5901 5901 5901 5898 5897 5896 5894 5892 5891 5890 5890 5889 5888 5887 5886 5884 5883 5881 5879 5878 5876 5875 5874 5873 5872 5871 5871 5871 5871 5870 5870 5869 5868 5867
5938 5938 5940 5941 5941 5941 5942 5943 5943 5943 5944 5944 5944 5945 5945 5944 5944 5944 5943 5942 5942 5942 5941 5941 5941 5940 5938 5937 5936 5934 5933 5933 5932 5930 5928 5927 5925 5923 5921 5919 5917 5916 5913 5911 5908 5907 5905 5903 5902 5901 5902 5901 5900 5900 5900 5898 5897 5896 5894 5892 5890 5890 5889 5888 5888 5887 5885 5884 5882 5880 5878 5877 5876 5874 5873 5872 5871 5870 5869 5869 5868 5868 5868 5867 5866 5866
5936 5937 5938 5939 5940 5940 5942 5943 5943 5942 5942 5942 5943 5943 5943 5943 5943 5943 5942 5941 5940 5940 5939 5939 5939 5938 5937 5935 5934 5933 5933 5932 5930 5928 5926 5925 5923 5921 5920 5918 5916 5914 5912 5910 5908 5906 5905 5902 5900 5899 5900 5900 5899 5900 5899 5898 5896 5895 5893 5891 5890 5889 5888 5887 5886 5885 5884 5883 5881 5879 5877 5876 5875 5873 5872 5871 5870 5869 5868 5867 5867 5866 5866 5865 5865 5864
5935 5936 5937 5937 5937 5939 5941 5942 5943 5942 5942 5942 5941 5941 5941 5942 5942 5941 5940 5940 5939 5938 5938 5937 5937 5936 5935 5934 5933 5932 5931 5930 5929 5927 5924 5923 5921 5920 5918 5916 5915 5913 5911 5909 5907 5905 5904 5902 5901 5900 5900 5899 5899 5899 5897 5896 5895 5893 5892 5890 5888 5887 5886 5885 5884 5883 5882 5880 5879 5877 5876 5874 5873 5872 5871 5870 5868 5867 5866 5866 5865 5864 5863 5863 5862 5862
5935 5936 5936 5936 5936 5937 5939 5940 5941 5942 5942 5941 5941 5941 5941 5941 5941 5940 5939 5938 5937 5937 5936 5935 5934 5933 5933 5932 5932 5931 5930 5928 5927 5925 5923 5921 5919 5918 5917 5915 5913 5911 5909 5907 5905 5904 5902 5901 5900 5900 5899 5899 5898 5897 5895 5893 5892 5891 5890 5888 5886 5884 5883 5883 5882 5881 5879 5878 5877 5875 5874 5873 5871 5870 5869 5868 5866 5865 5864 5863 5862 5861 5861 5860 5859 5859
5935 5935 5935 5935 5935 5936 5937 5938 5939 5940 5940 5941 5941 5940 5940 5940 5940 5939 5938 5936 5935 5934 5934 5932 5932 5931 5931 5931 5930 5929 5928 5926 5925 5924 5921 5919 5917 5916 5915 5914 5912 5910 5908 5906 5904 5903 5901 5900 5899 5898 5898 5897 5896 5894 5893 5891 5890 5889 5887 5886 5884 5882 5880 5880 5879 5878 5877 5876 5874 5873 5872 5870 5869 5868 5867 5865 5864 5862 5861 5860 5859 5858 5857 5856 5856 5855
5933 5934 5934 5933 5933 5934 5934 5936 5938 5939 5939 5939 5939 5939 5939 5939 5938 5936 5935 5933 5932 5932 5932 5931 5930 5929 5928 5928 5928 5927 5925 5924 5922 5921 5919 5917 5915 5914 5913 5912 5910 5908 5907 5905 5903 5902 5900 5899 5898 5897 5896 5895 5893 5892 5890 5889 5888 5887 5885 5883 5881 5879 5877 5876 5876 5875 5874 5873 5872 5870 5869 5867 5866 5865 5863 5862 5861 5859 5858 5857 5856 5854 5853 5852 5852 5851
5931 5933 5932 5932 5933 5934 5934 5936 5937 5937 5938 5938 5938 5937 5937 5936 5934 5932 5932 5931 5930 5930 5930 5929 5928 5927 5926 5925 5925 5924 5923 5921 5920 5918 5916 5914 5912 5911 5910 5908 5907 5906 5905 5904 5902 5900 5899 5898 5896 5895 5894 5892 5890 5889 5888 5887 5886 5884 5883 5881 5879 5876 5874 5873 5873 5872 5871 5870 5868 5867 5865 5864 5862 5861 5860 5858 5857 5856 5854 5853 5852 5850 5849 5848 5847 5846
5930 5931 5931 5932 5934 5935 5936 5936 5935 5935 5937 5937 5937 5935 5934 5933 5931 5930 5931 5930 5929 5929 5929 5929 5927 5926 5925 5924 5923 5921 5919 5918 5916 5914 5912 5910 5909 5908 5906 5904 5903 5903 5902 5901 5899 5898 5897 5895 5894 5892 5890 5889 5887 5887 5885 5884 5883 5881 5880 5878 5876 5874 5873 5871 5870 5869 5867 5866 5864 5863 5861 5859 5858 5856 5855 5853 5852 5851 5850 5848 5847 5846 5845 5843 5842 5841
5929 5929 5930 5931 5933 5935 5936 5935 5933 5933 5934 5935 5935 5933 5932 5931 5930 5930 5930 5929 5928 5928 5928 5928 5927 5925 5924 5923 5921 5919 5916 5914 5912 5910 5908 5907 5905 5904 5903 5902 5900 5899 5898 5897 5896 5895 5894 5893 5891 5889 5888 5886 5885 5884 5883 5881 5880 5878 5876 5875 5873 5872 5870 5869 5867 5865 5864 5862 5860 5858 5856 5854 5853 5851 5850 5849 5847 5846 5844 5843 5842 5841 5840 5838 5837 5836
5928 5929 5929 5931 5932 5934 5934 5933 5932 5932 5932 5933 5933 5931 5930 5930 5929 5929 5928 5927 5927 5928 5927 5927 5926 5924 5922 5921 5919 5917 5914 5912 5909 5907 5905 5904 5902 5901 5901 5899 5898 5897 5896 5895 5894 5893 5891 5890 5889 5888 5886 5884 5883 5882 5880 5878 5877 5875 5873 5871 5870 5868 5867 5865 5863 5861 5859 5857 5855 5853 5851 5849 5848 5846 5845 5843 5842 5840 5839 5837 5836 5834 5833 5832 5831 5830
5927 5928 5929 5930 5932 5933 5932 5932 5931 5931 5931 5931 5930 5929 5928 5928 5926 5926 5926 5926 5927 5927 5926 5926 5924 5922 5920 5918 5917 5915 5912 5910 5907 5905 5903 5902 5900 5899 5898 5897 5896 5895 5894 5893 5892 5891 5889 5887 5886 5885 5883 5881 5880 5879 5877 5876 5873 5871 5869 5868 5866 5865 5863 5861 5859 5857 5855 5852 5850 5848 5846 5844 5843 5841 5839 5837 5836 5834 5832 5831 5829 5828 5827 5826 5824 5823
5925 5927 5929 5930 5931 5931 5930 5930 5930 5929 5930 5928 5925 5925 5926 5925 5924 5924 5924 5925 5925 5925 5925 5924 5922 5920 5917 5916 5915 5913 5910 5907 5905 5903 5901 5900 5899 5897 5896 5894 5893 5892 5891 5890 5889 5888 5886 5884 5883 5881 5880 5878 5877 5875 5874 5872 5869 5867 5865 5863 5862 5860 5858 5856 5854 5852 5850 5848 5846 5844 5842 5840 5837 5835 5833 5831 5829 5827 5826 5824 5822 5821 5820 5818 5817 5816
5924 5926 5928 5929 5929 5929 5928 5928 5928 5928 5928 5925 5922 5923 5924 5923 5923 5923 5923 5923 5923 5923 5923 5922 5919 5917 5915 5914 5913 5911 5908 5905 5903 5901 5899 5898 5896 5895 5893 5892 5891 5890 5889 5888 5887 5885 5883 5881 5880 5878 5876 5875 5873 5872 5870 5868 5865 5863 5861 5859 5857 5855 5853 5851 5849 5847 5845 5843 5841 5839 5837 5834 5832 5830 5828 5825 5823 5821 5819 5817 5816 5814 5812 5811 5810 5809
5923 5924 5926 5926 5926 5926 5926 5926 5925 5924 5924 5922 5921 5922 5922 5922 5922 5923 5923 5922 5922 5922 5920 5918 5916 5914 5913 5912 5910 5908 5906 5903 5901 5900 5897 5895 5894 5893 5891 5891 5889 5888 5887 5886 5884 5883 5881 5879 5878 5876 5874 5872 5870 5868 5866 5864 5862 5859 5857 5855 5853 5851 5849 5846 5844 5842 5840 5837 5835 5832 5830 5828 5826 5824 5821 5819 5817 5814 5812 5810 5808 5807 5805 5804 5802 5801
5922 5922 5923 5924 5924 5924 5923 5922 5921 5919 5919 5919 5919 5919 5919 5919 5920 5921 5921 5920 5920 5919 5917 5915 5913 5911 5910 5909 5907 5906 5903 5901 5899 5898 5895 5894 5893 5892 5891 5890 5888 5887 5886 5884 5882 5881 5879 5877 5876 5874 5872 5870 5868 5866 5864 5861 5859 5857 5854 5852 5850 5847 5845 5842 5840 5837 5835 5832 5829 5827 5824 5822 5819 5817 5814 5812 5810 5807 5805 5803 5801 5799 5798 5796 5795 5793
5920 5921 5921 5922 5922 5922 5920 5918 5917 5917 5917 5917 5917 5917 5917 5916 5917 5918 5918 5918 5917 5915 5913 5911 5910 5908 5907 5906 5904 5903 5901 5899 5897 5895 5894 5893 5892 5891 5890 5889 5887 5885 5884 5882 5880 5878 5876 5875 5873 5871 5869 5867 5865 5863 5860 5858 5856 5853 5851 5848 5845 5843 5840 5837 5834 5832 5829 5827 5824 5821 5818 5816 5813 5811 5808 5805 5803 5801 5798 5796 5793 5792 5790 5788 5787 5785
5918 5920 5919 5920 5921 5920 5918 5917 5916 5916 5915 5915 5915 5915 5914 5914 5914 5915 5915 5914 5913 5911 5909 5907 5906 5905 5903 5902 5901 5899 5897 5896 5895 5893 5892 5891 5890 5889 5888 5886 5885 5883 5881 5879 5877 5874 5873 5871 5869 5867 5865 5863 5861 5858 5856 5853 5851 5848 5845 5842 5840 5837 5834 5831 5828 5825 5823 5820 5817 5815 5812 5810 5807 5805 5802 5800 5797 5795 5793 5790 5787 5785 5783 5781 5779 5778
5916 5918 5917 5917 5919 5918 5916 5916 5916 5914 5913 5913 5913 5912 5912 5912 5913 5912 5912 5911 5909 5907 5905 5904 5902 5900 5899 5898 5897 5896 5894 5893 5892 5891 5890 5889 5888 5886 5885 5884 5882 5880 5878 5875 5872 5870 5868 5866 5865 5862 5860 5858 5855 5852 5850 5847 5844 5842 5839 5836 5833 5831 5828 5825 5822 5820 5817 5814 5812 5809 5807 5804 5802 5799 5797 5795 5793 5791 5788 5785 5783 5781 5778 5776 5774 5772
5914 5916 5915 5915 5917 5916 5914 5914 5914 5912 5911 5911 5910 5910 5909 5910 5910 5909 5909 5907 5906 5904 5902 5900 5899 5897 5895 5894 5893 5892 5891 5890 5889 5888 5887 5886 5885 5884 5882 5880 5878 5876 5873 5870 5867 5865 5863 5862 5859 5857 5854 5852 5849 5847 5844 5841 5839 5836 5833 5830 5828 5825 5822 5820 5817 5814 5812 5810 5807 5804 5802 5799 5797 5794 5792 5790 5788 5786 5783 5781 5779 5777 5774 5772 5769 5767
5912 5913 5913 5913 5914 5914 5912 5912 5911 5910 5910 5909 5908 5908 5907 5907 5907 5907 5906 5905 5903 5901 5899 5897 5895 5894 5892 5891 5890 5889 5888 5887 5886 5885 5884 5882 5881 5880 5878 5876 5873 5870 5867 5865 5863 5861 5859 5856 5854 5851 5849 5847 5844 5841 5839 5836 5833 5831 5828 5826 5823 5821 5818 5816 5813 5810 5808 5805 5802 5800 5798 5795 5793 5790 5788 5786 5784 5781 5779 5776 5774 5772 5770 5767 5765 5762
5909 5910 5911 5911 5912 5912 5911 5910 5909 5909 5908 5908 5907 5906 5906 5905 5905 5904 5902 5901 5900 5898 5897 5895 5893 5891 5890 5889 5887 5886 5884 5883 5881 5880 5879 5878 5877 5875 5873 5871 5868 5866 5863 5861 5858 5856 5854 5852 5849 5847 5844 5842 5839 5837 5834 5831 5828 5826 5824 5822 5819 5817 5814 5812 5809 5806 5804 5801 5799 5796 5794 5791 5789 5786 5784 5782 5779 5777 5775 5772 5770 5767 5765 5762 5760 5757
5907 5907 5908 5908 5909 5909 5908 5908 5907 5906 5906 5905 5905 5904 5904 5903 5902 5901 5899 5898 5896 5895 5894 5892 5890 5889 5887 5886 5885 5883 5881 5879 5878 5876 5876 5875 5874 5872 5869 5867 5864 5862 5860 5858 5856 5853 5851 5849 5846 5843 5841 5838 5835 5832 5829 5826 5824 5822 5820 5817 5815 5812 5809 5807 5804 5802 5800 5797 5795 5793 5790 5787 5785 5782 5780 5778 5775 5772 5770 5767 5765 5762 5760 5758 5755 5752
5905 5906 5906 5906 5906 5906 5905 5905 5904 5904 5903 5903 5902 5902 5901 5901 5899 5898 5896 5895 5894 5893 5892 5890 5888 5886 5885 5884 5882 5881 5879 5877 5875 5874 5874 5872 5870 5868 5866 5864 5861 5859 5857 5855 5853 5851 5848 5845 5841 5839 5836 5833 5830 5827 5824 5822 5820 5818 5815 5813 5811 5808 5805 5803 5801 5798 5796 5794 5791 5789 5786 5784 5781 5778 5776 5773 5770 5768 5765 5762 5760 5758 5755 5753 5750 5748
5903 5904 5904 5904 5903 5903 5903 5902 5901 5901 5900 5900 5899 5899 5898 5898 5897 5896 5894 5893 5892 5891 5889 5887 5885 5883 5882 5880 5878 5876 5875 5873 5871 5870 5870 5868 5865 5862 5860 5858 5856 5855 5852 5850 5848 5846 5844 5840 5837 5834 5832 5829 5825 5823 5820 5818 5816 5814 5812 5809 5807 5804 5802 5799 5797 5795 5793 5790 5788 5785 5783 5780 5777 5774 5772 5769 5766 5763 5761 5758 5756 5753 5751 5749 5746 5744
5900 5901 5902 5902 5901 5901 5901 5900 5899 5898 5897 5896 5896 5896 5896 5894 5893 5892 5891 5890 5889 5888 5886 5884 5883 5881 5879 5877 5874 5872 5870 5868 5866 5864 5864 5862 5859 5856 5853 5852 5850 5848 5846 5844 5842 5840 5838 5835 5832 5829 5826 5824 5821 5819 5817 5814 5812 5810 5808 5806 5803 5801 5798 5796 5794 5791 5789 5787 5784 5781 5779 5776 5773 5771 5768 5765 5762 5760 5757 5754 5752 5750 5747 5745 5743 5741
5897 5898 5899 5900 5899 5899 5899 5898 5897 5896 5894 5894 5893 5893 5893 5891 5890 5890 5889 5888 5887 5885 5884 5882 5880 5878 5876 5874 5871 5869 5866 5864 5862 5860 5859 5857 5854 5851 5849 5847 5846 5844 5842 5840 5838 5835 5832 5830 5827 5824 5821 5819 5817 5815 5813 5811 5809 5807 5804 5802 5800 5797 5795 5792 5790 5788 5785 5783 5780 5778 5775 5772 5770 5767 5765 5762 5759 5757 5754 5751 5749 5746 5744 5742 5740 5737
5896 5896 5896 5897 5898 5897 5896 5896 5895 5894 5893 5892 5892 5891 5890 5889 5888 5887 5886 5885 5883 5882 5880 5879 5877 5875 5873 5871 5868 5866 5864 5862 5859 5857 5856 5854 5851 5848 5845 5842 5841 5839 5837 5835 5832 5830 5827 5825 5822 5819 5817 5815 5813 5811 5809 5807 5805 5803 5801 5798 5796 5794 5791 5789 5787 5784 5781 5779 5776 5774 5772 5769 5767 5765 5762 5759 5757 5754 5751 5749 5746 5744 5741 5739 5737 5734
5895 5895 5895 5895 5896 5895 5895 5894 5893 5892 5892 5891 5890 5888 5887 5886 5885 5884 5883 5882 5880 5879 5877 5875 5874 5872 5869 5867 5865 5863 5861 5859 5857 5854 5852 5850 5848 5845 5842 5839 5836 5834 5832 5830 5827 5825 5823 5821 5818 5816 5813 5811 5809 5807 5805 5803 5801 5799 5797 5795 5792 5790 5788 5785 5783 5780 5778 5776 5774 5771 5769 5766 5764 5762 5760 5757 5754 5752 5749 5747 5744 5742 5739 5737 5734 5732
5893 5893 5893 5893 5893 5893 5892 5891 5891 5890 5890 5890 5888 5886 5885 5883 5882 5881 5880 5879 5878 5876 5875 5873 5871 5869 5866 5864 5862 5861 5859 5857 5855 5852 5850 5847 5845 5842 5839 5836 5833 5831 5828 5826 5823 5820 5817 5816 5814 5812 5810 5808 5806 5804 5801 5799 5797 5795 5793 5791 5789 5787 5784 5782 5780 5777 5775 5773 5771 5768 5766 5764 5762 5760 5757 5755 5752 5750 5748 5745 5743 5740 5738 5735 5733 5730
5891 5891 5890 5890 5890 5889 5889 5889 5889 5889 5889 5887 5886 5884 5883 5882 5880 5879 5878 5877 5875 5874 5872 5871 5869 5866 5863 5861 5860 5858 5856 5854 5851 5849 5846 5843 5841 5838 5836 5833 5830 5827 5825 5823 5820 5816 5813 5811 5810 5808 5806 5804 5802 5800 5797 5795 5793 5791 5789 5787 5785 5783 5781 5778 5776 5774 5772 5769 5768 5765 5763 5761 5759 5757 5755 5753 5750 5748 5746 5744 5741 5739 5736 5734 5732 5729
5889 5889 5888 5887 5887 5887 5887 5887 5888 5888 5886 5884 5882 5882 5880 5880 5879 5877 5876 5875 5873 5871 5869 5868 5865 5863 5860 5858 5856 5855 5852 5850 5847 5845 5842 5840 5837 5835 5832 5830 5827 5824 5821 5819 5816 5813 5810 5808 5806 5804 5802 5800 5798 5796 5794 5791 5789 5788 5786 5784 5782 5780 5777 5775 5773 5771 5769 5767 5765 5763 5761 5759 5757 5755 5753 5751 5749 5747 5744 5742 5740 5737 5735 5733 5731 5728
5888 5888 5887 5886 5885 5885 5885 5885 5885 5884 5883 5881 5880 5879 5878 5877 5876 5875 5874 5872 5870 5867 5865 5864 5862 5859 5856 5854 5853 5851 5848 5845 5843 5841 5839 5836 5834 5831 5829 5826 5822 5819 5816 5814 5811 5808 5806 5804 5803 5800 5798 5796 5795 5793 5790 5788 5786 5784 5782 5781 5779 5776 5774 5772 5770 5768 5766 5764 5762 5760 5758 5756 5755 5753 5751 5749 5747 5745 5742 5740 5738 5736 5734 5732 5730 5727
5886 5886 5885 5884 5883 5882 5882 5882 5881 5880 5879 5879 5878 5877 5876 5875 5874 5873 5871 5869 5867 5864 5862 5860 5858 5856 5854 5852 5850 5847 5844 5841 5839 5837 5835 5833 5830 5827 5825 5822 5818 5815 5813 5810 5807 5805 5803 5801 5800 5798 5795 5793 5791 5789 5787 5785 5783 5781 5779 5777 5775 5773 5771 5769 5767 5765 5763 5761 5759 5757 5756 5754 5752 5750 5749 5747 5745 5743 5740 5739 5736 5734 5732 5730 5728 5726
5884 5883 5882 5881 5881 5880 5880 5879 5878 5877 5877 5876 5875 5874 5873 5872 5871 5869 5867 5865 5864 5862 5859 5857 5854 5853 5851 5849 5847 5845 5842 5839 5837 5834 5832 5829 5826 5824 5821 5819 5816 5813 5810 5807 5804 5802 5800 5799 5797 5794 5792 5790 5788 5785 5783 5781 5779 5777 5775 5773 5771 5769 5767 5766 5764 5762 5760 5758 5757 5755 5753 5752 5750 5748 5746 5745 5743 5740 5738 5737 5734 5732 5730 5728 5726 5724
5881 5880 5879 5879 5879 5879 5878 5877 5876 5876 5875 5874 5873 5871 5870 5869 5867 5865 5863 5862 5860 5859 5856 5854 5852 5850 5848 5846 5844 5841 5839 5836 5834 5832 5829 5826 5823 5820 5817 5815 5813 5810 5807 5804 5801 5798 5796 5795 5793 5791 5788 5786 5784 5782 5780 5777 5775 5774 5772 5770 5768 5766 5764 5763 5761 5759 5757 5756 5754 5752 5751 5749 5747 5746 5744 5742 5740 5738 5736 5734 5732 5730 5728 5726 5724 5721
5879 5878 5878 5877 5877 5877 5876 5876 5875 5874 5874 5872 5871 5869 5867 5866 5864 5862 5860 5858 5857 5855 5853 5851 5849 5847 5845 5844 5841 5839 5836 5833 5831 5828 5825 5822 5819 5816 5813 5812 5810 5807 5803 5800 5798 5795 5793 5791 5789 5787 5785 5783 5781 5779 5776 5774 5772 5771 5769 5767 5765 5763 5762 5760 5758 5756 5755 5753 5751 5750 5748 5747 5745 5743 5741 5739 5738 5736 5734 5732 5730 5728 5726 5724 5721 5719
5876 5876 5876 5876 5875 5875 5875 5875 5874 5873 5872 5871 5869 5868 5866 5864 5861 5859 5857 5856 5854 5853 5851 5849 5847 5845 5843 5841 5839 5836 5833 5831 5828 5825 5822 5819 5816 5813 5810 5809 5807 5804 5800 5797 5795 5793 5790 5789 5787 5785 5782 5780 5778 5776 5774 5772 5769 5768 5766 5764 5762 5761 5759 5757 5756 5754 5752 5750 5748 5747 5745 5744 5742 5740 5739 5737 5735 5733 5731 5729 5727 5726 5724 5722 5719 5717
5873 5873 5873 5873 5873 5873 5873 5872 5872 5871 5870 5869 5868 5866 5864 5862 5860 5857 5856 5855 5853 5851 5849 5847 5845 5842 5840 5838 5835 5833 5830 5827 5824 5821 5819 5816 5813 5810 5807 5805 5804 5801 5798 5795 5792 5790 5788 5786 5784 5782 5780 5777 5775 5773 5771 5769 5767 5765 5763 5762 5760 5758 5757 5755 5753 5751 5749 5747 5746 5744 5742 5741 5739 5738 5736 5734 5733 5731 5729 5727 5725 5723 5721 5719 5717 5715